Weather History for KMHK - September, 2013

Change the Weather History Date:

Saturday, September 21, 2013

  Actual Average Record
Temperature  
Mean Temperature 65 °F 66 °F  
Max Temperature 83 °F 79 °F 96 °F (2005)
Min Temperature 47 °F 52 °F 30 °F (1999)
Degree Days  
Heating Degree Days 0 3  
Month to date heating degree days 6 27  
Since 1 July heating degree days 9 30  
Cooling Degree Days 0 4  
Month to date cooling degree days 222 129  
Year to date cooling degree days 1450 1312  
Growing Degree Days 15 (Base 50)    
Moisture  
Dew Point 52 °F    
Average Humidity 67    
Maximum Humidity 100    
Minimum Humidity 33    
Precipitation  
Precipitation 0.00 in 0.09 in 0.97 in (1998)
Month to date precipitation 2.86 2.39  
Year to date precipitation 24.08 26.93  
Sea Level Pressure  
Sea Level Pressure 29.96 in    
Wind  
Wind Speed 3 mph (SSE)    
Max Wind Speed 12 mph    
Max Gust Speed 15 mph    
Visibility 10 miles    
Events      
T = Trace of Precipitation, MM = Missing Value Source: NWS Daily Summary

Daily Weather History Graph

Daily Weather History Graph

Search for Another Location

Airport or City:

Trip Planner

Search our weather history database for the weather conditions in past years. The results will help you decide how hot, cold, wet, or windy it might be!

Date:

Astronomy

Sep. 21, 2013 Rise Set
Actual Time 7:13 AM CDT 7:24 PM CDT
Civil Twilight 6:47 AM CDT 7:51 PM CDT
Nautical Twilight 6:15 AM CDT 8:22 PM CDT
Astronomical Twilight 5:43 AM CDT 8:54 PM CDT
Moon 8:37 PM CDT (9/21) 9:32 AM CDT (9/21)
Length of Visible Light 13h 04m
Length of Day
12h 11m
Waning Gibbous, 94% of the Moon is Illuminated
Sep 21
Waning Gibbous
Sep 26
Last Quarter
Oct 4
New
Oct 11
First Quarter
Oct 18
Full

Hourly Weather History & Observations

Time (CDT) Temp. Heat Index Dew Point Humidity Pressure Visibility Wind Dir Wind Speed Gust Speed Precip Events Conditions
12:52 AM 51.1 °F - 50.0 °F 96% 30.02 in 10.0 mi Calm Calm - N/A   Clear
1:52 AM 50.0 °F - 48.9 °F 96% 30.02 in 10.0 mi Calm Calm - N/A   Clear
2:52 AM 50.0 °F - 48.9 °F 96% 30.01 in 10.0 mi Calm Calm - N/A   Clear
3:52 AM 48.9 °F - 48.9 °F 100% 30.01 in 9.0 mi Calm Calm - N/A   Clear
4:52 AM 48.0 °F - 48.0 °F 100% 30.01 in 10.0 mi Calm Calm - N/A   Clear
5:52 AM 48.0 °F - 46.9 °F 96% 30.02 in 10.0 mi Calm Calm - N/A   Clear
6:52 AM 48.0 °F - 46.9 °F 96% 30.03 in 10.0 mi Calm Calm - N/A   Clear
7:52 AM 50.0 °F - 48.0 °F 93% 30.04 in 10.0 mi Calm Calm - N/A   Clear
8:52 AM 54.0 °F - 51.1 °F 90% 30.04 in 10.0 mi Calm Calm - N/A   Clear
9:52 AM 61.0 °F - 54.0 °F 78% 30.04 in 10.0 mi ENE 3.5 mph - N/A   Clear
10:52 AM 69.1 °F - 54.0 °F 58% 30.02 in 10.0 mi ENE 4.6 mph - N/A   Clear
11:52 AM 73.9 °F - 51.1 °F 45% 30.00 in 10.0 mi South 4.6 mph - N/A   Clear
12:52 PM 78.1 °F - 51.1 °F 39% 29.98 in 10.0 mi WSW 5.8 mph - N/A   Clear
1:52 PM 80.1 °F - 52.0 °F 38% 29.96 in 10.0 mi Variable 4.6 mph - N/A   Clear
2:52 PM 81.0 °F - 51.1 °F 35% 29.93 in 10.0 mi Calm Calm - N/A   Clear
3:52 PM 81.0 °F - 48.9 °F 33% 29.91 in 10.0 mi Calm Calm - N/A   Clear
4:52 PM 82.0 °F - 51.1 °F 34% 29.89 in 10.0 mi SSW 4.6 mph - N/A   Clear
5:52 PM 81.0 °F 80.7 °F 55.0 °F 41% 29.88 in 10.0 mi SSE 9.2 mph - N/A   Clear
6:52 PM 77.0 °F - 55.9 °F 48% 29.87 in 10.0 mi SE 8.1 mph - N/A   Clear
7:52 PM 71.1 °F - 55.9 °F 59% 29.87 in 10.0 mi SSE 5.8 mph - N/A   Clear
8:52 PM 68.0 °F - 55.0 °F 63% 29.89 in 10.0 mi South 4.6 mph - N/A   Clear
9:52 PM 66.9 °F - 55.0 °F 66% 29.89 in 10.0 mi South 6.9 mph - N/A   Clear
10:52 PM 66.0 °F - 55.0 °F 68% 29.89 in 10.0 mi South 4.6 mph - N/A   Clear
11:52 PM 63.0 °F - 54.0 °F 72% 29.89 in 10.0 mi Calm Calm - N/A   Clear